Starlink 31480

operational
NORAD ID: 59306 Int'l Des: 2024-056 Owner: SPXS Country: US Constellation: starlink
LEOCIRCULAR

About Starlink 31480

Description loading...

Live Position

Loading 3D Globe...

Upcoming Passes

Altitude History

Altitude vs Time

uPlot chart will show altitude changes over time

Two-Line Element Set

1 59306U 24056L 26102.87279522 -.00002255 00000-0 -72426-4 0 9994
2 59306 43.0056 37.5346 0000717 263.7810 96.2960 15.27586868116380
Epoch: Apr 12, 2026 • Age: 8 hours

Current Status

Altitude 484.0 km
Velocity 7.63 km/s
Sub-Earth Point 29.79°N, 156.91°E
Launch Date Mar 24, 2024
Age 2 years
Type internet

Technical Details

Classification Payload
Mass 730.00 kg
Dry Mass 700.00 kg
Total Mass 730.00 kg
Length 0.30 m
Diameter 4.10 m
Span 29.00 m
Shape Box + pan
Manufacturer SPXS
Bus Type Starlink V2M
Phase Status In Orbit
Owner/State SPXS/US

Large Constellations

Loading constellations...